Tracking 20942 objects as of 12-Jul-2020
HD Live streaming from Space Station
objects crossing your sky now

PSLV DEB

Track PSLV DEB now!
10-day predictions


NORAD ID: 27152
Int'l Code: 2001-049CY
Perigee: 601.8 km
Apogee: 650.4 km
Inclination: 98.2 °
Period: 97.1 minutes
Semi major axis: 6997 km
RCS: 0.063 m2 (small)
Launch date: October 22, 2001
Source: India (IND)
Launch site: SRIHARIKOTA (SRI)

Note: This is SATELLITE DEBRIS
aabbcc
Your satellite tracking list
Your tracking list is empty




NASA's NSSDC Master Catalog

Two Line Element Set (TLE):
1 27152U 01049CY  20193.73417673  .00000174  00000-0  28225-4 0  9999
2 27152  98.1779 198.5895 0034745 285.1402  74.5969 14.83285322998183
Source of the keplerian elements: AFSPC